<?xml version="1.0" encoding="UTF-8" standalone="no" ?>
<gpx xmlns="http://www.topografix.com/GPX/1/1" xmlns:xsi="http://www.w3.org/2001/XMLSchema-instance" xsi:schemaLocation="http://www.topografix.com/GPX/1/1 http://www.topografix.com/GPX/1/1/gpx.xsd" version="1.1" creator="VisuGPX - https://www.visugpx.com">
  <metadata>
    <name>Parc de Marly M16</name>
    <desc><![CDATA[marly le roi]]></desc>
  </metadata>
  <trk>
    <name><![CDATA[M 16 Parc de Marly le Roi]]></name>
    <trkseg>
      <trkpt lat="48.86225" lon="2.09619">
        <ele>129</ele>
        <time>2008-02-27T17:17:44Z</time>
      </trkpt>
      <trkpt lat="48.86319" lon="2.09618">
        <ele>127</ele>
        <time>2008-02-27T17:17:44Z</time>
      </trkpt>
      <trkpt lat="48.86503" lon="2.09594">
        <ele>124</ele>
        <time>2008-02-27T17:17:44Z</time>
      </trkpt>
      <trkpt lat="48.86526" lon="2.09617">
        <ele>123</ele>
        <time>2008-02-27T17:17:44Z</time>
      </trkpt>
      <trkpt lat="48.86604" lon="2.09573">
        <ele>125</ele>
        <time>2008-02-27T17:17:44Z</time>
      </trkpt>
      <trkpt lat="48.86703" lon="2.09681">
        <ele>119</ele>
        <time>2008-02-27T17:17:44Z</time>
      </trkpt>
      <trkpt lat="48.86744" lon="2.09582">
        <ele>127</ele>
        <time>2008-02-27T17:17:44Z</time>
      </trkpt>
      <trkpt lat="48.86674" lon="2.09501">
        <ele>132</ele>
        <time>2008-02-27T17:17:44Z</time>
      </trkpt>
      <trkpt lat="48.8675" lon="2.09398">
        <ele>139</ele>
        <time>2008-02-27T17:17:44Z</time>
      </trkpt>
      <trkpt lat="48.86694" lon="2.09337">
        <ele>145</ele>
        <time>2008-02-27T17:17:44Z</time>
      </trkpt>
      <trkpt lat="48.86732" lon="2.09259">
        <ele>145</ele>
        <time>2008-02-27T17:17:44Z</time>
      </trkpt>
      <trkpt lat="48.86779" lon="2.09248">
        <ele>140</ele>
        <time>2008-02-27T17:17:44Z</time>
      </trkpt>
      <trkpt lat="48.86812" lon="2.09177">
        <ele>133</ele>
        <time>2008-02-27T17:17:44Z</time>
      </trkpt>
      <trkpt lat="48.8688" lon="2.09047">
        <ele>123</ele>
        <time>2008-02-27T17:17:44Z</time>
      </trkpt>
      <trkpt lat="48.86885" lon="2.09047">
        <ele>123</ele>
        <time>2008-02-27T17:17:44Z</time>
      </trkpt>
      <trkpt lat="48.86979" lon="2.08883">
        <ele>125</ele>
        <time>2008-02-27T17:17:44Z</time>
      </trkpt>
      <trkpt lat="48.87024" lon="2.08774">
        <ele>124</ele>
        <time>2008-02-27T17:17:44Z</time>
      </trkpt>
      <trkpt lat="48.86974" lon="2.08726">
        <ele>128</ele>
        <time>2008-02-27T17:17:44Z</time>
      </trkpt>
      <trkpt lat="48.86961" lon="2.08679">
        <ele>131</ele>
        <time>2008-02-27T17:17:44Z</time>
      </trkpt>
      <trkpt lat="48.86956" lon="2.08624">
        <ele>132</ele>
        <time>2008-02-27T17:17:44Z</time>
      </trkpt>
      <trkpt lat="48.86947" lon="2.0859">
        <ele>133</ele>
        <time>2008-02-27T17:17:44Z</time>
      </trkpt>
      <trkpt lat="48.86947" lon="2.08536">
        <ele>135</ele>
        <time>2008-02-27T17:17:44Z</time>
      </trkpt>
      <trkpt lat="48.86947" lon="2.08515">
        <ele>135</ele>
        <time>2008-02-27T17:17:44Z</time>
      </trkpt>
      <trkpt lat="48.86906" lon="2.08454">
        <ele>141</ele>
        <time>2008-02-27T17:17:44Z</time>
      </trkpt>
      <trkpt lat="48.86884" lon="2.08414">
        <ele>143</ele>
        <time>2008-02-27T17:17:44Z</time>
      </trkpt>
      <trkpt lat="48.86883" lon="2.08413">
        <ele>143</ele>
        <time>2008-02-27T17:17:44Z</time>
      </trkpt>
      <trkpt lat="48.86829" lon="2.08346">
        <ele>146</ele>
        <time>2008-02-27T17:17:44Z</time>
      </trkpt>
      <trkpt lat="48.86754" lon="2.08312">
        <ele>151</ele>
        <time>2008-02-27T17:17:44Z</time>
      </trkpt>
      <trkpt lat="48.86685" lon="2.08309">
        <ele>156</ele>
        <time>2008-02-27T17:17:44Z</time>
      </trkpt>
      <trkpt lat="48.86509" lon="2.0816">
        <ele>160</ele>
        <time>2008-02-27T17:17:44Z</time>
      </trkpt>
      <trkpt lat="48.86404" lon="2.08167">
        <ele>168</ele>
        <time>2008-02-27T17:17:44Z</time>
      </trkpt>
      <trkpt lat="48.8626" lon="2.08062">
        <ele>156</ele>
        <time>2008-02-27T17:17:44Z</time>
      </trkpt>
      <trkpt lat="48.86264" lon="2.08066">
        <ele>157</ele>
        <time>2008-02-27T17:17:44Z</time>
      </trkpt>
      <trkpt lat="48.86145" lon="2.07998">
        <ele>143</ele>
        <time>2008-02-27T17:17:44Z</time>
      </trkpt>
      <trkpt lat="48.86039" lon="2.08023">
        <ele>133</ele>
        <time>2008-02-27T17:17:44Z</time>
      </trkpt>
      <trkpt lat="48.86015" lon="2.08009">
        <ele>134</ele>
        <time>2008-02-27T17:17:44Z</time>
      </trkpt>
      <trkpt lat="48.85983" lon="2.07996">
        <ele>134</ele>
        <time>2008-02-27T17:17:44Z</time>
      </trkpt>
      <trkpt lat="48.85961" lon="2.07996">
        <ele>136</ele>
        <time>2008-02-27T17:17:44Z</time>
      </trkpt>
      <trkpt lat="48.85934" lon="2.07989">
        <ele>136</ele>
        <time>2008-02-27T17:17:44Z</time>
      </trkpt>
      <trkpt lat="48.8592" lon="2.07989">
        <ele>136</ele>
        <time>2008-02-27T17:17:44Z</time>
      </trkpt>
      <trkpt lat="48.859" lon="2.07962">
        <ele>134</ele>
        <time>2008-02-27T17:17:44Z</time>
      </trkpt>
      <trkpt lat="48.85862" lon="2.07948">
        <ele>136</ele>
        <time>2008-02-27T17:17:44Z</time>
      </trkpt>
      <trkpt lat="48.85853" lon="2.07949">
        <ele>136</ele>
        <time>2008-02-27T17:17:44Z</time>
      </trkpt>
      <trkpt lat="48.8581" lon="2.07949">
        <ele>138</ele>
        <time>2008-02-27T17:17:44Z</time>
      </trkpt>
      <trkpt lat="48.85761" lon="2.07986">
        <ele>141</ele>
        <time>2008-02-27T17:17:44Z</time>
      </trkpt>
      <trkpt lat="48.85758" lon="2.07986">
        <ele>141</ele>
        <time>2008-02-27T17:17:44Z</time>
      </trkpt>
      <trkpt lat="48.85673" lon="2.07817">
        <ele>155</ele>
        <time>2008-02-27T17:17:44Z</time>
      </trkpt>
      <trkpt lat="48.85632" lon="2.07701">
        <ele>158</ele>
        <time>2008-02-27T17:17:44Z</time>
      </trkpt>
      <trkpt lat="48.8563" lon="2.07694">
        <ele>158</ele>
        <time>2008-02-27T17:17:44Z</time>
      </trkpt>
      <trkpt lat="48.85681" lon="2.07452">
        <ele>159</ele>
        <time>2008-02-27T17:17:44Z</time>
      </trkpt>
      <trkpt lat="48.85679" lon="2.07439">
        <ele>158</ele>
        <time>2008-02-27T17:17:44Z</time>
      </trkpt>
      <trkpt lat="48.85681" lon="2.07428">
        <ele>158</ele>
        <time>2008-02-27T17:17:44Z</time>
      </trkpt>
      <trkpt lat="48.85562" lon="2.07385">
        <ele>170</ele>
        <time>2008-02-27T17:17:44Z</time>
      </trkpt>
      <trkpt lat="48.8555" lon="2.07446">
        <ele>173</ele>
        <time>2008-02-27T17:17:44Z</time>
      </trkpt>
      <trkpt lat="48.85504" lon="2.07552">
        <ele>174</ele>
        <time>2008-02-27T17:17:44Z</time>
      </trkpt>
      <trkpt lat="48.85446" lon="2.08094">
        <ele>173</ele>
        <time>2008-02-27T17:17:44Z</time>
      </trkpt>
      <trkpt lat="48.85545" lon="2.08171">
        <ele>166</ele>
        <time>2008-02-27T17:17:44Z</time>
      </trkpt>
      <trkpt lat="48.85635" lon="2.08253">
        <ele>172</ele>
        <time>2008-02-27T17:17:44Z</time>
      </trkpt>
      <trkpt lat="48.85748" lon="2.08279">
        <ele>173</ele>
        <time>2008-02-27T17:17:44Z</time>
      </trkpt>
      <trkpt lat="48.85928" lon="2.08296">
        <ele>168</ele>
        <time>2008-02-27T17:17:44Z</time>
      </trkpt>
      <trkpt lat="48.86017" lon="2.08298">
        <ele>165</ele>
        <time>2008-02-27T17:17:44Z</time>
      </trkpt>
      <trkpt lat="48.8602" lon="2.08298">
        <ele>165</ele>
        <time>2008-02-27T17:17:44Z</time>
      </trkpt>
      <trkpt lat="48.86062" lon="2.08302">
        <ele>167</ele>
        <time>2008-02-27T17:17:44Z</time>
      </trkpt>
      <trkpt lat="48.86105" lon="2.08298">
        <ele>168</ele>
        <time>2008-02-27T17:17:44Z</time>
      </trkpt>
      <trkpt lat="48.8617" lon="2.08352">
        <ele>171</ele>
        <time>2008-02-27T17:17:44Z</time>
      </trkpt>
      <trkpt lat="48.86193" lon="2.08417">
        <ele>171</ele>
        <time>2008-02-27T17:17:44Z</time>
      </trkpt>
      <trkpt lat="48.86284" lon="2.08764">
        <ele>169</ele>
        <time>2008-02-27T17:17:44Z</time>
      </trkpt>
      <trkpt lat="48.86192" lon="2.08992">
        <ele>169</ele>
        <time>2008-02-27T17:17:44Z</time>
      </trkpt>
      <trkpt lat="48.86089" lon="2.09238">
        <ele>166</ele>
        <time>2008-02-27T17:17:44Z</time>
      </trkpt>
      <trkpt lat="48.85961" lon="2.09259">
        <ele>169</ele>
        <time>2008-02-27T17:17:44Z</time>
      </trkpt>
      <trkpt lat="48.85927" lon="2.09269">
        <ele>169</ele>
        <time>2008-02-27T17:17:44Z</time>
      </trkpt>
      <trkpt lat="48.859" lon="2.09297">
        <ele>168</ele>
        <time>2008-02-27T17:17:44Z</time>
      </trkpt>
      <trkpt lat="48.85786" lon="2.09539">
        <ele>158</ele>
        <time>2008-02-27T17:17:44Z</time>
      </trkpt>
      <trkpt lat="48.85793" lon="2.09539">
        <ele>157</ele>
        <time>2008-02-27T17:17:44Z</time>
      </trkpt>
      <trkpt lat="48.85751" lon="2.09614">
        <ele>160</ele>
        <time>2008-02-27T17:17:44Z</time>
      </trkpt>
      <trkpt lat="48.8567" lon="2.09628">
        <ele>166</ele>
        <time>2008-02-27T17:17:44Z</time>
      </trkpt>
      <trkpt lat="48.85616" lon="2.09628">
        <ele>169</ele>
        <time>2008-02-27T17:17:44Z</time>
      </trkpt>
      <trkpt lat="48.85593" lon="2.09628">
        <ele>170</ele>
        <time>2008-02-27T17:17:44Z</time>
      </trkpt>
      <trkpt lat="48.85522" lon="2.09782">
        <ele>168</ele>
        <time>2008-02-27T17:17:44Z</time>
      </trkpt>
      <trkpt lat="48.85569" lon="2.10017">
        <ele>169</ele>
        <time>2008-02-27T17:17:44Z</time>
      </trkpt>
      <trkpt lat="48.85758" lon="2.10152">
        <ele>168</ele>
        <time>2008-02-27T17:17:44Z</time>
      </trkpt>
      <trkpt lat="48.85932" lon="2.10451">
        <ele>164</ele>
        <time>2008-02-27T17:17:44Z</time>
      </trkpt>
      <trkpt lat="48.85966" lon="2.10441">
        <ele>163</ele>
        <time>2008-02-27T17:17:44Z</time>
      </trkpt>
      <trkpt lat="48.86336" lon="2.10361">
        <ele>128</ele>
        <time>2008-02-27T17:17:44Z</time>
      </trkpt>
      <trkpt lat="48.86437" lon="2.10299">
        <ele>118</ele>
        <time>2008-02-27T17:17:44Z</time>
      </trkpt>
      <trkpt lat="48.86446" lon="2.10289">
        <ele>116</ele>
        <time>2008-02-27T17:17:44Z</time>
      </trkpt>
      <trkpt lat="48.8663" lon="2.10131">
        <ele>100</ele>
        <time>2008-02-27T17:17:44Z</time>
      </trkpt>
      <trkpt lat="48.86576" lon="2.09958">
        <ele>106</ele>
        <time>2008-02-27T17:17:44Z</time>
      </trkpt>
      <trkpt lat="48.8652" lon="2.09968">
        <ele>108</ele>
        <time>2008-02-27T17:17:44Z</time>
      </trkpt>
      <trkpt lat="48.86511" lon="2.09968">
        <ele>108</ele>
        <time>2008-02-27T17:17:44Z</time>
      </trkpt>
      <trkpt lat="48.86502" lon="2.099">
        <ele>112</ele>
        <time>2008-02-27T17:17:44Z</time>
      </trkpt>
      <trkpt lat="48.86385" lon="2.09799">
        <ele>116</ele>
        <time>2008-02-27T17:17:44Z</time>
      </trkpt>
      <trkpt lat="48.86315" lon="2.09738">
        <ele>120</ele>
        <time>2008-02-27T17:17:44Z</time>
      </trkpt>
      <trkpt lat="48.86207" lon="2.09653">
        <ele>129</ele>
        <time>2008-02-27T17:17:44Z</time>
      </trkpt>
      <trkpt lat="48.86204" lon="2.09632">
        <ele>130</ele>
        <time>2008-02-27T17:17:44Z</time>
      </trkpt>
    </trkseg>
  </trk>
</gpx>